Time,TemperatureF,DewpointF,PressureIn,WindDirection,WindDirectionDegrees,WindSpeedMPH,WindSpeedGustMPH,Humidity,HourlyPrecipIn,Conditions,Clouds,dailyrainin,SoftwareType,DateUTC
2013-07-18 00:01:00,79.0,76.1,29.99,NE,45,0.0,0.0,91,0.00,CLR,,0.00,WeatherDisplay:10.37,2013-07-18 04:01:00,
2013-07-18 00:06:00,79.0,76.1,29.99,NE,45,0.0,0.0,91,0.00,CLR,,0.00,WeatherDisplay:10.37,2013-07-18 04:06:00,
2013-07-18 00:11:00,78.8,75.9,29.99,NE,45,0.0,0.0,91,0.00,CLR,,0.00,WeatherDisplay:10.37,2013-07-18 04:11:00,
2013-07-18 00:16:00,78.6,76.1,29.99,NE,45,0.0,1.1,92,0.00,CLR,,0.00,WeatherDisplay:10.37,2013-07-18 04:16:00,
2013-07-18 00:21:00,78.4,75.9,30.00,NE,45,0.0,0.0,92,0.00,CLR,,0.00,WeatherDisplay:10.37,2013-07-18 04:21:00,
2013-07-18 00:26:00,78.4,75.9,30.00,NE,45,0.0,1.1,92,0.00,CLR,,0.00,WeatherDisplay:10.37,2013-07-18 04:26:00,
2013-07-18 00:31:00,78.4,75.9,30.00,NE,45,0.0,0.0,92,0.00,CLR,,0.00,WeatherDisplay:10.37,2013-07-18 04:31:00,
2013-07-18 00:36:00,78.4,75.9,30.00,NE,45,0.0,1.1,92,0.00,CLR,,0.00,WeatherDisplay:10.37,2013-07-18 04:36:00,
2013-07-18 00:41:00,78.6,76.1,30.00,NE,45,0.0,0.0,92,0.00,CLR,,0.00,WeatherDisplay:10.37,2013-07-18 04:41:00,
2013-07-18 00:46:00,78.6,76.1,30.00,NE,45,0.0,1.1,92,0.00,CLR,,0.00,WeatherDisplay:10.37,2013-07-18 04:46:00,
2013-07-18 00:51:00,78.6,75.8,30.01,NE,45,0.0,0.0,91,0.00,CLR,,0.00,WeatherDisplay:10.37,2013-07-18 04:51:00,
2013-07-18 00:56:00,78.8,75.6,30.01,NE,45,0.0,0.0,90,0.00,CLR,,0.00,WeatherDisplay:10.37,2013-07-18 04:56:00,
2013-07-18 01:01:00,78.8,75.6,30.01,NE,45,0.0,0.0,90,0.00,CLR,,0.00,WeatherDisplay:10.37,2013-07-18 05:01:00,
2013-07-18 01:06:00,78.6,75.4,30.01,SE,135,0.0,1.1,90,0.00,CLR,,0.00,WeatherDisplay:10.37,2013-07-18 05:06:00,
2013-07-18 01:11:00,78.6,75.4,30.01,SE,135,0.0,1.1,90,0.00,CLR,,0.00,WeatherDisplay:10.37,2013-07-18 05:11:00,
2013-07-18 01:16:00,78.6,75.4,30.01,SE,135,0.0,1.1,90,0.00,CLR,,0.00,WeatherDisplay:10.37,2013-07-18 05:16:00,
2013-07-18 01:21:00,78.6,75.4,30.01,SE,135,0.0,0.0,90,0.00,CLR,,0.00,WeatherDisplay:10.37,2013-07-18 05:21:00,
2013-07-18 01:26:00,78.6,75.4,30.01,SE,135,0.0,1.1,90,0.00,CLR,,0.00,WeatherDisplay:10.37,2013-07-18 05:26:00,
2013-07-18 01:31:00,78.6,75.8,30.00,SE,135,0.0,0.0,91,0.00,CLR,,0.00,WeatherDisplay:10.37,2013-07-18 05:31:00,
2013-07-18 01:36:00,78.4,75.6,30.00,SE,135,0.0,1.1,91,0.00,CLR,,0.00,WeatherDisplay:10.37,2013-07-18 05:36:00,
2013-07-18 01:41:00,78.3,75.4,30.00,SE,135,0.0,0.0,91,0.00,CLR,,0.00,WeatherDisplay:10.37,2013-07-18 05:41:00,
2013-07-18 01:46:00,78.3,75.7,29.99,SE,135,0.0,0.0,92,0.00,CLR,,0.00,WeatherDisplay:10.37,2013-07-18 05:46:00,
2013-07-18 01:51:00,78.3,75.7,29.99,SE,135,0.0,0.0,92,0.00,CLR,,0.00,WeatherDisplay:10.37,2013-07-18 05:51:00,
2013-07-18 01:56:00,78.3,75.7,29.99,SE,135,0.0,0.0,92,0.00,CLR,,0.00,WeatherDisplay:10.37,2013-07-18 05:56:00,
2013-07-18 02:01:00,78.3,75.7,29.99,SE,135,0.0,0.0,92,0.00,CLR,,0.00,WeatherDisplay:10.37,2013-07-18 06:01:00,
2013-07-18 02:06:00,78.3,75.7,29.99,SE,135,0.0,0.0,92,0.00,CLR,,0.00,WeatherDisplay:10.37,2013-07-18 06:06:00,
2013-07-18 02:11:00,78.1,75.6,29.98,SE,135,0.0,1.1,92,0.00,CLR,,0.00,WeatherDisplay:10.37,2013-07-18 06:11:00,
2013-07-18 02:16:00,78.1,75.6,29.98,SE,135,0.0,0.0,92,0.00,CLR,,0.00,WeatherDisplay:10.37,2013-07-18 06:16:00,
2013-07-18 02:21:00,77.7,75.2,29.98,SE,135,0.0,0.0,92,0.00,CLR,,0.00,WeatherDisplay:10.37,2013-07-18 06:21:00,
2013-07-18 02:26:00,77.5,75.4,29.98,SE,135,0.0,0.0,93,0.00,CLR,,0.00,WeatherDisplay:10.37,2013-07-18 06:26:00,
2013-07-18 02:31:00,77.4,75.2,29.97,SE,135,0.0,0.0,93,0.00,CLR,,0.00,WeatherDisplay:10.37,2013-07-18 06:31:00,
2013-07-18 02:36:00,77.0,75.1,29.97,SE,135,0.0,0.0,94,0.00,CLR,,0.00,WeatherDisplay:10.37,2013-07-18 06:36:00,
2013-07-18 02:41:00,76.8,75.3,29.97,SE,135,0.0,0.0,95,0.00,CLR,,0.00,WeatherDisplay:10.37,2013-07-18 06:41:00,
2013-07-18 02:47:00,76.6,75.1,29.97,SE,135,0.0,0.0,95,0.00,CLR,,0.00,WeatherDisplay:10.37,2013-07-18 06:47:00,
2013-07-18 02:52:00,76.5,74.9,29.97,SE,135,0.0,0.0,95,0.00,CLR,,0.00,WeatherDisplay:10.37,2013-07-18 06:52:00,
2013-07-18 02:57:00,76.3,75.1,29.97,SE,135,0.0,0.0,96,0.00,CLR,,0.00,WeatherDisplay:10.37,2013-07-18 06:57:00,
2013-07-18 03:02:00,76.3,75.1,29.97,SE,135,0.0,0.0,96,0.00,CLR,,0.00,WeatherDisplay:10.37,2013-07-18 07:02:00,
2013-07-18 03:07:00,76.1,75.2,29.96,SE,135,0.0,0.0,97,0.00,CLR,,0.00,WeatherDisplay:10.37,2013-07-18 07:07:00,
2013-07-18 03:12:00,75.9,75.0,29.96,SE,135,0.0,0.0,97,0.00,CLR,,0.00,WeatherDisplay:10.37,2013-07-18 07:12:00,
2013-07-18 03:17:00,75.7,74.8,29.96,SE,135,0.0,0.0,97,0.00,CLR,,0.00,WeatherDisplay:10.37,2013-07-18 07:17:00,
2013-07-18 03:22:00,75.9,75.0,29.96,SE,135,0.0,1.1,97,0.00,CLR,,0.00,WeatherDisplay:10.37,2013-07-18 07:22:00,
2013-07-18 03:27:00,76.1,75.2,29.96,SE,135,0.9,2.3,97,0.00,CLR,,0.00,WeatherDisplay:10.37,2013-07-18 07:27:00,
2013-07-18 03:32:00,76.3,75.4,29.96,SE,135,2.0,2.3,97,0.00,CLR,,0.00,WeatherDisplay:10.37,2013-07-18 07:32:00,
2013-07-18 03:37:00,76.3,75.4,29.96,South,180,1.7,2.3,97,0.00,CLR,,0.00,WeatherDisplay:10.37,2013-07-18 07:37:00,
2013-07-18 03:42:00,76.5,75.5,29.96,SE,135,2.0,2.3,97,0.00,CLR,,0.00,WeatherDisplay:10.37,2013-07-18 07:42:00,
2013-07-18 03:47:00,76.5,75.5,29.96,SE,135,0.0,2.3,97,0.00,CLR,,0.00,WeatherDisplay:10.37,2013-07-18 07:47:00,
2013-07-18 03:52:00,76.5,75.2,29.96,SE,135,2.0,2.3,96,0.00,CLR,,0.00,WeatherDisplay:10.37,2013-07-18 07:52:00,
2013-07-18 03:57:00,76.5,75.5,29.96,East,90,0.0,1.1,97,0.00,CLR,,0.00,WeatherDisplay:10.37,2013-07-18 07:57:00,
2013-07-18 04:02:00,76.5,75.5,29.95,East,90,0.0,0.0,97,0.00,CLR,,0.00,WeatherDisplay:10.37,2013-07-18 08:02:00,
2013-07-18 04:07:00,76.3,75.1,29.95,East,90,0.0,0.0,96,0.00,CLR,,0.00,WeatherDisplay:10.37,2013-07-18 08:07:00,
2013-07-18 04:12:00,76.3,75.1,29.95,East,90,0.0,0.0,96,0.00,CLR,,0.00,WeatherDisplay:10.37,2013-07-18 08:12:00,
2013-07-18 04:17:00,76.1,74.9,29.95,ESE,112,0.0,0.0,96,0.00,CLR,,0.00,WeatherDisplay:10.37,2013-07-18 08:17:00,
2013-07-18 04:22:00,75.9,74.7,29.95,ESE,112,0.0,0.0,96,0.00,CLR,,0.00,WeatherDisplay:10.37,2013-07-18 08:22:00,
2013-07-18 04:27:00,75.7,74.8,29.95,ESE,112,0.0,0.0,97,0.00,CLR,,0.00,WeatherDisplay:10.37,2013-07-18 08:27:00,
2013-07-18 04:32:00,75.7,74.8,29.95,ESE,112,0.0,0.0,97,0.00,CLR,,0.00,WeatherDisplay:10.37,2013-07-18 08:32:00,
2013-07-18 04:37:00,75.6,74.6,29.95,ESE,112,0.0,0.0,97,0.00,CLR,,0.00,WeatherDisplay:10.37,2013-07-18 08:37:00,
2013-07-18 04:42:00,75.6,74.6,29.95,ESE,112,0.0,1.1,97,0.00,CLR,,0.00,WeatherDisplay:10.37,2013-07-18 08:42:00,
2013-07-18 04:47:00,75.6,74.6,29.95,ESE,112,0.0,0.0,97,0.00,CLR,,0.00,WeatherDisplay:10.37,2013-07-18 08:47:00,
2013-07-18 04:52:00,75.6,74.6,29.95,ESE,112,0.0,0.9,97,0.00,CLR,,0.00,WeatherDisplay:10.37,2013-07-18 08:52:00,
2013-07-18 04:57:00,75.6,74.6,29.95,ESE,112,0.0,0.0,97,0.00,CLR,,0.00,WeatherDisplay:10.37,2013-07-18 08:57:00,
2013-07-18 05:02:00,75.4,74.8,29.95,ESE,112,0.0,0.0,98,0.00,CLR,,0.00,WeatherDisplay:10.37,2013-07-18 09:02:00,
2013-07-18 05:07:00,75.2,74.6,29.94,ESE,112,0.0,0.0,98,0.00,CLR,,0.00,WeatherDisplay:10.37,2013-07-18 09:07:00,
2013-07-18 05:12:00,75.2,74.6,29.95,ESE,112,0.0,0.0,98,0.00,CLR,,0.00,WeatherDisplay:10.37,2013-07-18 09:12:00,
2013-07-18 05:17:00,75.0,74.7,29.94,ESE,112,0.0,0.0,99,0.00,CLR,,0.00,WeatherDisplay:10.37,2013-07-18 09:17:00,
2013-07-18 05:22:00,74.8,74.5,29.94,ESE,112,0.0,0.0,99,0.00,CLR,,0.00,WeatherDisplay:10.37,2013-07-18 09:22:00,
2013-07-18 05:27:00,74.8,74.5,29.94,ESE,112,0.0,0.0,99,0.00,CLR,,0.00,WeatherDisplay:10.37,2013-07-18 09:27:00,
2013-07-18 05:32:00,74.8,74.5,29.94,ESE,112,0.0,0.0,99,0.00,CLR,,0.00,WeatherDisplay:10.37,2013-07-18 09:32:00,
2013-07-18 05:37:00,74.8,74.5,29.94,SE,135,0.0,0.0,99,0.00,CLR,,0.00,WeatherDisplay:10.37,2013-07-18 09:37:00,
2013-07-18 05:42:00,74.7,74.4,29.95,SE,135,0.0,1.1,99,0.00,CLR,,0.00,WeatherDisplay:10.37,2013-07-18 09:42:00,
2013-07-18 05:47:00,74.7,74.4,29.94,SE,135,0.0,0.0,99,0.00,CLR,,0.00,WeatherDisplay:10.37,2013-07-18 09:47:00,
2013-07-18 05:52:00,74.7,74.4,29.94,SE,135,0.0,0.0,99,0.00,CLR,,0.00,WeatherDisplay:10.37,2013-07-18 09:52:00,
2013-07-18 05:57:00,74.8,74.5,29.95,SE,135,0.0,1.1,99,0.00,CLR,,0.00,WeatherDisplay:10.37,2013-07-18 09:57:00,
2013-07-18 06:02:00,74.8,74.5,29.95,East,90,0.0,0.0,99,0.00,CLR,,0.00,WeatherDisplay:10.37,2013-07-18 10:02:00,
2013-07-18 06:07:00,74.8,74.5,29.94,East,90,0.0,0.0,99,0.00,CLR,,0.00,WeatherDisplay:10.37,2013-07-18 10:07:00,
2013-07-18 06:12:00,74.8,74.5,29.95,SE,135,0.9,2.3,99,0.00,CLR,,0.00,WeatherDisplay:10.37,2013-07-18 10:12:00,
2013-07-18 06:17:00,74.7,74.4,29.94,SE,135,0.9,2.3,99,0.00,CLR,,0.00,WeatherDisplay:10.37,2013-07-18 10:17:00,
2013-07-18 06:22:00,74.7,74.4,29.94,SE,135,0.0,2.3,99,0.00,CLR,,0.00,WeatherDisplay:10.37,2013-07-18 10:22:00,
2013-07-18 06:27:00,74.7,74.4,29.94,SE,135,0.0,1.1,99,0.00,CLR,,0.00,WeatherDisplay:10.37,2013-07-18 10:27:00,
2013-07-18 06:32:00,74.7,74.4,29.94,SE,135,0.0,0.0,99,0.00,CLR,,0.00,WeatherDisplay:10.37,2013-07-18 10:32:00,
2013-07-18 06:37:00,74.5,74.2,29.94,SE,135,0.0,0.0,99,0.00,CLR,,0.00,WeatherDisplay:10.37,2013-07-18 10:37:00,
2013-07-18 06:42:00,74.5,74.2,29.94,SE,135,0.0,0.0,99,0.00,CLR,,0.00,WeatherDisplay:10.37,2013-07-18 10:42:00,
2013-07-18 06:47:00,74.5,74.2,29.94,ESE,112,0.0,0.0,99,0.00,CLR,,0.00,WeatherDisplay:10.37,2013-07-18 10:47:00,
2013-07-18 06:52:00,74.5,74.2,29.94,SE,135,0.0,0.0,99,0.00,CLR,,0.00,WeatherDisplay:10.37,2013-07-18 10:52:00,
2013-07-18 06:57:00,74.5,74.2,29.94,SE,135,0.0,0.0,99,0.00,CLR,,0.00,WeatherDisplay:10.37,2013-07-18 10:57:00,
2013-07-18 07:02:00,74.7,74.4,29.94,SE,135,0.0,2.3,99,0.00,CLR,,0.00,WeatherDisplay:10.37,2013-07-18 11:02:00,
2013-07-18 07:07:00,74.7,74.4,29.94,SE,135,0.9,2.3,99,0.00,CLR,,0.00,WeatherDisplay:10.37,2013-07-18 11:07:00,
2013-07-18 07:12:00,74.8,74.5,29.94,SE,135,0.0,1.1,99,0.00,CLR,,0.00,WeatherDisplay:10.37,2013-07-18 11:12:00,
2013-07-18 07:17:00,75.0,74.7,29.94,East,90,0.0,2.3,99,0.00,CLR,,0.00,WeatherDisplay:10.37,2013-07-18 11:17:00,
2013-07-18 07:22:00,75.0,74.7,29.94,East,90,0.0,1.1,99,0.00,CLR,,0.00,WeatherDisplay:10.37,2013-07-18 11:22:00,
2013-07-18 07:27:00,75.2,74.9,29.94,East,90,0.0,0.0,99,0.00,CLR,,0.00,WeatherDisplay:10.37,2013-07-18 11:27:00,
2013-07-18 07:32:00,75.2,74.9,29.93,East,90,0.0,1.1,99,0.00,CLR,,0.00,WeatherDisplay:10.37,2013-07-18 11:32:00,
2013-07-18 07:37:00,75.4,75.1,29.93,East,90,0.9,2.3,99,0.00,CLR,,0.00,WeatherDisplay:10.37,2013-07-18 11:37:00,
2013-07-18 07:42:00,75.6,75.3,29.93,East,90,0.0,1.1,99,0.00,CLR,,0.00,WeatherDisplay:10.37,2013-07-18 11:42:00,
2013-07-18 07:47:00,75.9,75.6,29.93,East,90,0.0,0.9,99,0.00,CLR,,0.00,WeatherDisplay:10.37,2013-07-18 11:47:00,
2013-07-18 07:52:00,76.3,76.0,29.93,East,90,0.0,1.1,99,0.00,CLR,,0.00,WeatherDisplay:10.37,2013-07-18 11:52:00,
2013-07-18 07:57:00,76.6,76.3,29.93,East,90,0.0,1.1,99,0.00,CLR,,0.00,WeatherDisplay:10.37,2013-07-18 11:57:00,
2013-07-18 08:02:00,77.0,76.4,29.93,East,90,0.0,1.1,98,0.00,CLR,,0.00,WeatherDisplay:10.37,2013-07-18 12:02:00,
2013-07-18 08:07:00,77.4,76.8,29.93,SSE,158,0.0,0.0,98,0.00,CLR,,0.00,WeatherDisplay:10.37,2013-07-18 12:07:00,
2013-07-18 08:12:00,77.7,77.1,29.93,SE,135,0.0,0.0,98,0.00,CLR,,0.00,WeatherDisplay:10.37,2013-07-18 12:12:00,
2013-07-18 08:17:00,78.1,77.5,29.93,SE,135,0.0,0.0,98,0.00,CLR,,0.00,WeatherDisplay:10.37,2013-07-18 12:17:00,
2013-07-18 08:22:00,78.4,77.5,29.93,SE,135,0.0,0.0,97,0.00,CLR,,0.00,WeatherDisplay:10.37,2013-07-18 12:22:00,
2013-07-18 08:27:00,78.8,77.6,29.93,SE,135,0.0,0.0,96,0.00,CLR,,0.00,WeatherDisplay:10.37,2013-07-18 12:27:00,
2013-07-18 08:32:00,79.2,77.6,29.93,SE,135,0.0,0.0,95,0.00,CLR,,0.00,WeatherDisplay:10.37,2013-07-18 12:32:00,
2013-07-18 08:37:00,79.7,78.1,29.93,SE,135,0.0,1.1,95,0.00,CLR,,0.00,WeatherDisplay:10.37,2013-07-18 12:37:00,
2013-07-18 08:42:00,79.9,78.3,29.93,SE,135,0.0,1.1,95,0.00,CLR,,0.00,WeatherDisplay:10.37,2013-07-18 12:42:00,
2013-07-18 08:47:00,80.2,78.4,29.93,SE,135,0.0,1.1,94,0.00,CLR,,0.00,WeatherDisplay:10.37,2013-07-18 12:47:00,
2013-07-18 08:52:00,80.6,78.4,29.93,South,180,0.0,0.0,93,0.00,CLR,,0.00,WeatherDisplay:10.37,2013-07-18 12:52:00,
2013-07-18 08:57:00,81.1,78.6,29.93,South,180,0.0,0.0,92,0.00,CLR,,0.00,WeatherDisplay:10.37,2013-07-18 12:57:00,
2013-07-18 09:02:00,81.5,78.6,29.93,South,180,0.0,1.1,91,0.00,CLR,,0.00,WeatherDisplay:10.37,2013-07-18 13:02:00,
2013-07-18 09:07:00,81.9,78.6,29.92,SW,225,0.0,0.0,90,0.00,CLR,,0.00,WeatherDisplay:10.37,2013-07-18 13:07:00,
2013-07-18 09:12:00,82.2,78.7,29.93,West,270,0.0,0.0,89,0.00,CLR,,0.00,WeatherDisplay:10.37,2013-07-18 13:12:00,
2013-07-18 09:17:00,82.6,78.3,29.93,SW,225,0.0,0.0,87,0.00,CLR,,0.00,WeatherDisplay:10.37,2013-07-18 13:17:00,
2013-07-18 09:22:00,83.1,78.5,29.93,SW,225,0.0,0.0,86,0.00,CLR,,0.00,WeatherDisplay:10.37,2013-07-18 13:22:00,
2013-07-18 09:27:00,83.5,78.5,29.92,South,180,0.0,1.1,85,0.00,CLR,,0.00,WeatherDisplay:10.37,2013-07-18 13:27:00,
2013-07-18 09:32:00,83.7,78.7,29.92,South,180,0.0,0.0,85,0.00,CLR,,0.00,WeatherDisplay:10.37,2013-07-18 13:32:00,
2013-07-18 09:37:00,84.2,78.8,29.92,SW,225,0.0,0.0,84,0.00,CLR,,0.00,WeatherDisplay:10.37,2013-07-18 13:37:00,
2013-07-18 09:42:00,84.4,78.6,29.92,SW,225,0.0,0.0,83,0.00,CLR,,0.00,WeatherDisplay:10.37,2013-07-18 13:42:00,
2013-07-18 09:47:00,85.3,78.4,29.92,SW,225,0.0,0.0,80,0.00,CLR,,0.00,WeatherDisplay:10.37,2013-07-18 13:47:00,
2013-07-18 09:52:00,86.2,78.1,29.92,SE,135,0.0,0.0,77,0.00,CLR,,0.00,WeatherDisplay:10.37,2013-07-18 13:52:00,
2013-07-18 09:58:00,86.7,78.2,29.91,SW,225,0.0,0.0,76,0.00,CLR,,0.00,WeatherDisplay:10.37,2013-07-18 13:58:00,
2013-07-18 10:03:00,86.7,77.4,29.91,West,270,0.0,0.0,74,0.00,CLR,,0.00,WeatherDisplay:10.37,2013-07-18 14:03:00,
2013-07-18 10:08:00,86.7,77.4,29.91,SW,225,0.0,0.0,74,0.00,CLR,,0.00,WeatherDisplay:10.37,2013-07-18 14:08:00,
2013-07-18 10:13:00,87.1,78.2,29.91,South,180,0.0,0.0,75,0.00,CLR,,0.00,WeatherDisplay:10.37,2013-07-18 14:13:00,
2013-07-18 10:18:00,88.0,78.2,29.91,SSW,202,0.0,1.1,73,0.00,CLR,,0.00,WeatherDisplay:10.37,2013-07-18 14:18:00,
2013-07-18 10:23:00,88.7,78.5,29.91,SW,225,0.0,1.1,72,0.00,CLR,,0.00,WeatherDisplay:10.37,2013-07-18 14:23:00,
2013-07-18 10:28:00,89.2,78.6,29.91,SW,225,0.0,1.1,71,0.00,CLR,,0.00,WeatherDisplay:10.37,2013-07-18 14:28:00,
2013-07-18 10:33:00,89.1,78.0,29.92,West,270,0.0,0.0,70,0.00,CLR,,0.00,WeatherDisplay:10.37,2013-07-18 14:33:00,
2013-07-18 10:38:00,88.5,77.5,29.92,West,270,0.0,0.0,70,0.00,CLR,,0.00,WeatherDisplay:10.37,2013-07-18 14:38:00,
2013-07-18 10:43:00,88.9,77.4,29.92,SW,225,0.0,0.0,69,0.00,CLR,,0.00,WeatherDisplay:10.37,2013-07-18 14:43:00,
2013-07-18 10:48:00,88.7,77.7,29.93,SW,225,0.0,0.0,70,0.00,CLR,,0.00,WeatherDisplay:10.37,2013-07-18 14:48:00,
2013-07-18 10:53:00,88.7,77.2,29.93,SE,135,0.0,1.1,69,0.00,CLR,,0.00,WeatherDisplay:10.37,2013-07-18 14:53:00,
2013-07-18 10:58:00,88.3,76.9,29.93,SE,135,0.0,1.1,69,0.00,CLR,,0.00,WeatherDisplay:10.37,2013-07-18 14:58:00,
2013-07-18 11:03:00,88.7,77.2,29.93,SE,135,0.0,0.0,69,0.00,CLR,,0.00,WeatherDisplay:10.37,2013-07-18 15:03:00,
2013-07-18 11:08:00,89.4,78.3,29.94,SE,135,0.0,1.1,70,0.00,CLR,,0.00,WeatherDisplay:10.37,2013-07-18 15:08:00,
2013-07-18 11:13:00,90.0,76.6,29.93,SE,135,0.0,0.0,65,0.00,CLR,,0.00,WeatherDisplay:10.37,2013-07-18 15:13:00,
2013-07-18 11:18:00,90.0,77.1,29.94,SE,135,0.0,0.0,66,0.00,CLR,,0.00,WeatherDisplay:10.37,2013-07-18 15:18:00,
2013-07-18 11:23:00,90.1,77.2,29.94,SE,135,0.0,0.0,66,0.00,CLR,,0.00,WeatherDisplay:10.37,2013-07-18 15:23:00,
2013-07-18 11:28:00,89.4,77.0,29.94,SE,135,0.0,0.0,67,0.00,CLR,,0.00,WeatherDisplay:10.37,2013-07-18 15:28:00,
2013-07-18 11:33:00,89.1,77.6,29.94,SE,135,0.0,2.3,69,0.00,CLR,,0.00,WeatherDisplay:10.37,2013-07-18 15:33:00,
2013-07-18 11:38:00,89.6,76.7,29.95,SE,135,0.0,0.0,66,0.00,CLR,,0.00,WeatherDisplay:10.37,2013-07-18 15:38:00,
2013-07-18 11:43:00,89.8,77.4,29.95,SE,135,0.0,2.3,67,0.00,CLR,,0.00,WeatherDisplay:10.37,2013-07-18 15:43:00,
2013-07-18 11:48:00,89.6,76.3,29.95,SE,135,0.9,2.3,65,0.00,CLR,,0.00,WeatherDisplay:10.37,2013-07-18 15:48:00,
2013-07-18 11:53:00,89.4,77.0,29.95,SE,135,0.0,2.3,67,0.00,CLR,,0.00,WeatherDisplay:10.37,2013-07-18 15:53:00,
2013-07-18 11:58:00,89.4,76.6,29.95,SE,135,0.9,2.3,66,0.00,CLR,,0.00,WeatherDisplay:10.37,2013-07-18 15:58:00,
2013-07-18 12:03:00,89.4,76.6,29.95,SE,135,0.9,2.3,66,0.00,CLR,,0.00,WeatherDisplay:10.37,2013-07-18 16:03:00,
2013-07-18 12:08:00,90.0,76.1,29.95,SE,135,0.9,2.3,64,0.00,CLR,,0.00,WeatherDisplay:10.37,2013-07-18 16:08:00,
2013-07-18 12:13:00,90.1,76.3,29.95,SE,135,0.0,2.3,64,0.00,CLR,,0.00,WeatherDisplay:10.37,2013-07-18 16:13:00,
2013-07-18 12:18:00,90.9,77.9,29.95,SE,135,0.0,2.3,66,0.00,CLR,,0.00,WeatherDisplay:10.37,2013-07-18 16:18:00,
2013-07-18 12:23:00,91.0,76.2,29.95,SE,135,0.0,0.0,62,0.00,CLR,,0.00,WeatherDisplay:10.37,2013-07-18 16:23:00,
2013-07-18 12:28:00,90.9,76.0,29.95,SE,135,0.0,0.0,62,0.00,CLR,,0.00,WeatherDisplay:10.37,2013-07-18 16:28:00,
2013-07-18 12:33:00,90.9,76.5,29.95,SE,135,0.0,0.0,63,0.00,CLR,,0.00,WeatherDisplay:10.37,2013-07-18 16:33:00,
2013-07-18 12:38:00,91.0,77.6,29.95,SE,135,0.0,2.3,65,0.00,CLR,,0.00,WeatherDisplay:10.37,2013-07-18 16:38:00,
2013-07-18 12:43:00,90.7,75.9,29.95,SE,135,0.0,2.3,62,0.00,CLR,,0.00,WeatherDisplay:10.37,2013-07-18 16:43:00,
2013-07-18 12:48:00,90.3,76.0,29.95,SE,135,0.0,0.0,63,0.00,CLR,,0.00,WeatherDisplay:10.37,2013-07-18 16:48:00,
2013-07-18 12:53:00,90.5,76.2,29.94,South,180,0.0,2.3,63,0.00,CLR,,0.00,WeatherDisplay:10.37,2013-07-18 16:53:00,
2013-07-18 12:58:00,90.3,76.5,29.94,South,180,0.0,2.3,64,0.00,CLR,,0.00,WeatherDisplay:10.37,2013-07-18 16:58:00,
2013-07-18 13:03:00,90.5,76.2,29.94,South,180,0.7,2.3,63,0.00,CLR,,0.00,WeatherDisplay:10.37,2013-07-18 17:03:00,
2013-07-18 13:08:00,90.9,76.0,29.94,South,180,0.0,1.1,62,0.00,CLR,,0.00,WeatherDisplay:10.37,2013-07-18 17:08:00,
2013-07-18 13:13:00,90.7,75.9,29.93,South,180,1.7,3.3,62,0.00,CLR,,0.00,WeatherDisplay:10.37,2013-07-18 17:13:00,
2013-07-18 13:18:00,90.7,75.9,29.93,South,180,0.0,1.1,62,0.00,CLR,,0.00,WeatherDisplay:10.37,2013-07-18 17:18:00,
2013-07-18 13:23:00,90.7,75.4,29.93,South,180,2.4,4.6,61,0.00,CLR,,0.00,WeatherDisplay:10.37,2013-07-18 17:23:00,
2013-07-18 13:28:00,90.7,76.3,29.93,WNW,292,1.7,4.6,63,0.00,CLR,,0.00,WeatherDisplay:10.37,2013-07-18 17:28:00,
2013-07-18 13:33:00,90.9,75.5,29.93,SW,225,0.0,3.5,61,0.00,CLR,,0.00,WeatherDisplay:10.37,2013-07-18 17:33:00,
2013-07-18 13:38:00,90.7,75.4,29.93,SW,225,1.7,4.6,61,0.00,CLR,,0.00,WeatherDisplay:10.37,2013-07-18 17:38:00,
2013-07-18 13:43:00,90.5,75.7,29.92,SW,225,3.3,4.7,62,0.00,CLR,,0.00,WeatherDisplay:10.37,2013-07-18 17:43:00,
2013-07-18 13:48:00,90.9,75.5,29.92,SW,225,3.3,4.6,61,0.00,CLR,,0.00,WeatherDisplay:10.37,2013-07-18 17:48:00,
2013-07-18 13:53:00,91.6,76.2,29.91,SW,225,0.7,4.6,61,0.00,CLR,,0.00,WeatherDisplay:10.37,2013-07-18 17:53:00,
2013-07-18 13:58:00,91.9,75.0,29.91,SW,225,0.7,4.6,58,0.00,CLR,,0.00,WeatherDisplay:10.37,2013-07-18 17:58:00,
2013-07-18 14:03:00,91.9,75.6,29.91,West,270,1.7,4.6,59,0.00,CLR,,0.00,WeatherDisplay:10.37,2013-07-18 18:03:00,
2013-07-18 14:08:00,91.8,74.9,29.91,South,180,1.7,4.6,58,0.00,CLR,,0.00,WeatherDisplay:10.37,2013-07-18 18:08:00,
2013-07-18 14:13:00,91.8,74.9,29.91,SE,135,2.0,4.6,58,0.00,CLR,,0.00,WeatherDisplay:10.37,2013-07-18 18:13:00,
2013-07-18 14:18:00,91.8,75.4,29.91,South,180,3.3,5.8,59,0.00,CLR,,0.00,WeatherDisplay:10.37,2013-07-18 18:18:00,
2013-07-18 14:23:00,92.1,74.7,29.91,West,270,2.4,4.6,57,0.00,CLR,,0.00,WeatherDisplay:10.37,2013-07-18 18:23:00,
2013-07-18 14:28:00,92.1,74.7,29.91,SW,225,0.7,4.6,57,0.00,CLR,,0.00,WeatherDisplay:10.37,2013-07-18 18:28:00,
2013-07-18 14:33:00,91.9,74.5,29.91,SW,225,2.4,4.6,57,0.00,CLR,,0.00,WeatherDisplay:10.37,2013-07-18 18:33:00,
2013-07-18 14:38:00,91.9,73.5,29.91,South,180,3.3,5.8,55,0.00,CLR,,0.00,WeatherDisplay:10.37,2013-07-18 18:38:00,
2013-07-18 14:44:00,91.8,74.4,29.91,SW,225,4.7,6.9,57,0.00,CLR,,0.00,WeatherDisplay:10.37,2013-07-18 18:44:00,
2013-07-18 14:49:00,92.3,73.8,29.90,NW,315,3.3,6.9,55,0.00,CLR,,0.00,WeatherDisplay:10.37,2013-07-18 18:49:00,
2013-07-18 14:54:00,92.3,74.3,29.90,SW,225,2.4,5.8,56,0.00,CLR,,0.00,WeatherDisplay:10.37,2013-07-18 18:54:00,
2013-07-18 14:59:00,92.3,73.2,29.89,West,270,3.3,4.6,54,0.00,CLR,,0.00,WeatherDisplay:10.37,2013-07-18 18:59:00,
2013-07-18 15:04:00,92.3,74.3,29.89,WSW,248,2.4,4.6,56,0.00,CLR,,0.00,WeatherDisplay:10.37,2013-07-18 19:04:00,
2013-07-18 15:09:00,92.8,74.3,29.89,NW,315,3.3,4.6,55,0.00,CLR,,0.00,WeatherDisplay:10.37,2013-07-18 19:09:00,
2013-07-18 15:14:00,93.2,73.5,29.88,SE,135,0.0,5.8,53,0.00,CLR,,0.00,WeatherDisplay:10.37,2013-07-18 19:14:00,
2013-07-18 15:19:00,93.0,74.5,29.88,South,180,0.0,3.5,55,0.00,CLR,,0.00,WeatherDisplay:10.37,2013-07-18 19:19:00,
2013-07-18 15:24:00,93.0,73.4,29.87,NW,315,0.0,4.6,53,0.00,CLR,,0.00,WeatherDisplay:10.37,2013-07-18 19:24:00,
2013-07-18 15:29:00,93.4,74.8,29.87,NW,315,0.0,3.5,55,0.00,CLR,,0.00,WeatherDisplay:10.37,2013-07-18 19:29:00,
2013-07-18 15:34:00,93.9,74.2,29.87,West,270,1.7,4.6,53,0.00,CLR,,0.00,WeatherDisplay:10.37,2013-07-18 19:34:00,
2013-07-18 15:39:00,94.6,74.3,29.86,West,270,1.7,4.6,52,0.00,CLR,,0.00,WeatherDisplay:10.37,2013-07-18 19:39:00,
2013-07-18 15:44:00,94.6,73.7,29.85,West,270,1.7,4.6,51,0.00,CLR,,0.00,WeatherDisplay:10.37,2013-07-18 19:44:00,
2013-07-18 15:49:00,94.3,74.5,29.85,SW,225,2.4,4.6,53,0.00,CLR,,0.00,WeatherDisplay:10.37,2013-07-18 19:49:00,
2013-07-18 15:54:00,94.6,74.3,29.84,SE,135,4.0,4.6,52,0.00,CLR,,0.00,WeatherDisplay:10.37,2013-07-18 19:54:00,
2013-07-18 15:59:00,94.6,75.4,29.84,SW,225,2.4,3.5,54,0.00,CLR,,0.00,WeatherDisplay:10.37,2013-07-18 19:59:00,
2013-07-18 16:04:00,95.9,76.0,29.84,SW,225,0.0,3.5,53,0.00,CLR,,0.00,WeatherDisplay:10.37,2013-07-18 20:04:00,
2013-07-18 16:09:00,95.2,73.0,29.83,SSW,202,0.0,2.3,49,0.00,CLR,,0.00,WeatherDisplay:10.37,2013-07-18 20:09:00,
2013-07-18 16:14:00,94.1,74.9,29.83,SW,225,3.3,4.6,54,0.00,CLR,,0.00,WeatherDisplay:10.37,2013-07-18 20:14:00,
2013-07-18 16:19:00,94.3,75.1,29.83,South,180,3.3,5.8,54,0.00,CLR,,0.00,WeatherDisplay:10.37,2013-07-18 20:19:00,
2013-07-18 16:24:00,94.3,74.0,29.83,SE,135,4.0,6.9,52,0.00,CLR,,0.00,WeatherDisplay:10.37,2013-07-18 20:24:00,
2013-07-18 16:29:00,94.3,74.5,29.82,SSW,202,3.3,6.9,53,0.00,CLR,,0.00,WeatherDisplay:10.37,2013-07-18 20:29:00,
2013-07-18 16:34:00,95.2,75.3,29.81,South,180,3.3,5.8,53,0.00,CLR,,0.00,WeatherDisplay:10.37,2013-07-18 20:34:00,
2013-07-18 16:39:00,94.8,75.6,29.81,SE,135,4.0,6.8,54,0.00,CLR,,0.00,WeatherDisplay:10.37,2013-07-18 20:39:00,
2013-07-18 16:44:00,94.3,75.6,29.81,South,180,4.0,6.9,55,0.00,CLR,,0.00,WeatherDisplay:10.37,2013-07-18 20:44:00,
2013-07-18 16:49:00,94.1,76.0,29.80,South,180,4.7,6.9,56,0.00,CLR,,0.00,WeatherDisplay:10.37,2013-07-18 20:49:00,
2013-07-18 16:54:00,95.0,76.3,29.80,SE,135,4.8,6.9,55,0.00,CLR,,0.00,WeatherDisplay:10.37,2013-07-18 20:54:00,
2013-07-18 16:59:00,95.2,74.8,29.79,SE,135,4.8,8.1,52,0.00,CLR,,0.00,WeatherDisplay:10.37,2013-07-18 20:59:00,
2013-07-18 17:04:00,95.4,74.4,29.79,SW,225,3.3,6.9,51,0.00,CLR,,0.00,WeatherDisplay:10.37,2013-07-18 21:04:00,
2013-07-18 17:09:00,95.9,74.9,29.78,SE,135,4.8,5.8,51,0.00,CLR,,0.00,WeatherDisplay:10.37,2013-07-18 21:09:00,
2013-07-18 17:14:00,96.1,74.4,29.78,SW,225,3.3,4.6,50,0.00,CLR,,0.00,WeatherDisplay:10.37,2013-07-18 21:14:00,
2013-07-18 17:19:00,96.3,74.0,29.77,South,180,3.3,4.6,49,0.00,CLR,,0.00,WeatherDisplay:10.37,2013-07-18 21:19:00,
2013-07-18 17:24:00,95.4,74.9,29.77,South,180,4.7,6.9,52,0.00,CLR,,0.00,WeatherDisplay:10.37,2013-07-18 21:24:00,
2013-07-18 17:29:00,95.2,74.8,29.76,South,180,4.0,8.1,52,0.00,CLR,,0.00,WeatherDisplay:10.37,2013-07-18 21:29:00,
2013-07-18 17:34:00,95.4,74.9,29.76,South,180,4.7,9.2,52,0.00,CLR,,0.00,WeatherDisplay:10.37,2013-07-18 21:34:00,
2013-07-18 17:39:00,94.8,75.6,29.75,South,180,3.3,8.1,54,0.00,CLR,,0.00,WeatherDisplay:10.37,2013-07-18 21:39:00,
2013-07-18 17:44:00,95.0,75.2,29.75,South,180,7.4,9.2,53,0.00,CLR,,0.00,WeatherDisplay:10.37,2013-07-18 21:44:00,
2013-07-18 17:49:00,94.6,75.4,29.75,East,90,4.0,8.1,54,0.00,CLR,,0.00,WeatherDisplay:10.37,2013-07-18 21:49:00,
2013-07-18 17:54:00,94.8,74.4,29.74,SE,135,5.7,10.4,52,0.00,CLR,,0.00,WeatherDisplay:10.37,2013-07-18 21:54:00,
2013-07-18 17:59:00,94.8,74.4,29.74,SE,135,5.7,10.4,52,0.00,CLR,,0.00,WeatherDisplay:10.37,2013-07-18 21:59:00,
2013-07-18 18:04:00,94.6,74.3,29.73,SE,135,6.8,10.4,52,0.00,CLR,,0.00,WeatherDisplay:10.37,2013-07-18 22:04:00,
2013-07-18 18:09:00,94.6,74.9,29.73,South,180,6.4,10.4,53,0.00,CLR,,0.00,WeatherDisplay:10.37,2013-07-18 22:09:00,
2013-07-18 18:14:00,94.8,75.0,29.73,South,180,7.4,12.7,53,0.00,CLR,,0.00,WeatherDisplay:10.37,2013-07-18 22:14:00,
2013-07-18 18:19:00,94.6,75.4,29.73,SW,225,4.7,8.1,54,0.00,CLR,,0.00,WeatherDisplay:10.37,2013-07-18 22:19:00,
2013-07-18 18:24:00,94.3,74.5,29.72,South,180,3.3,12.7,53,0.00,CLR,,0.00,WeatherDisplay:10.37,2013-07-18 22:24:00,
2013-07-18 18:29:00,94.1,74.9,29.71,SW,225,6.4,11.5,54,0.00,CLR,,0.00,WeatherDisplay:10.37,2013-07-18 22:29:00,
2013-07-18 18:34:00,94.3,73.4,29.70,SE,135,4.8,8.1,51,0.00,CLR,,0.00,WeatherDisplay:10.37,2013-07-18 22:34:00,
2013-07-18 18:39:00,94.5,74.7,29.70,SE,135,4.8,9.2,53,0.00,CLR,,0.00,WeatherDisplay:10.37,2013-07-18 22:39:00,
2013-07-18 18:44:00,94.6,74.3,29.69,East,90,4.8,9.2,52,0.00,CLR,,0.00,WeatherDisplay:10.37,2013-07-18 22:44:00,
2013-07-18 18:49:00,94.6,75.4,29.69,South,180,3.3,5.8,54,0.00,CLR,,0.00,WeatherDisplay:10.37,2013-07-18 22:49:00,
2013-07-18 18:54:00,94.8,75.0,29.69,South,180,4.7,6.9,53,0.00,CLR,,0.00,WeatherDisplay:10.37,2013-07-18 22:54:00,
2013-07-18 18:59:00,94.6,75.4,29.68,SE,135,5.7,8.1,54,0.00,CLR,,0.00,WeatherDisplay:10.37,2013-07-18 22:59:00,
2013-07-18 19:04:00,94.6,75.4,29.68,East,90,5.7,9.2,54,0.00,CLR,,0.00,WeatherDisplay:10.37,2013-07-18 23:04:00,
2013-07-18 19:09:00,94.6,76.0,29.68,SE,135,4.0,8.1,55,0.00,CLR,,0.00,WeatherDisplay:10.37,2013-07-18 23:09:00,
2013-07-18 19:14:00,94.8,76.1,29.69,SW,225,5.7,6.9,55,0.00,CLR,,0.00,WeatherDisplay:10.37,2013-07-18 23:14:00,
2013-07-18 19:15:00,94.8,76.1,29.69,SW,225,5.7,8.1,55,0.00,CLR,,0.00,WeatherDisplay:10.37,2013-07-18 23:15:00,
2013-07-18 19:20:00,94.3,75.6,29.69,South,180,5.7,6.9,55,0.00,CLR,,0.00,WeatherDisplay:10.37,2013-07-18 23:20:00,
2013-07-18 19:25:00,93.7,76.2,29.68,South,180,2.4,3.5,57,0.00,CLR,,0.00,WeatherDisplay:10.37,2013-07-18 23:25:00,
2013-07-18 19:30:00,93.7,75.7,29.68,SE,135,4.8,6.9,56,0.00,CLR,,0.00,WeatherDisplay:10.37,2013-07-18 23:30:00,
2013-07-18 19:35:00,93.4,75.3,29.68,SE,135,4.0,10.4,56,0.00,CLR,,0.00,WeatherDisplay:10.37,2013-07-18 23:35:00,
2013-07-18 19:40:00,93.6,75.5,29.67,South,180,4.7,8.1,56,0.00,CLR,,0.00,WeatherDisplay:10.37,2013-07-18 23:40:00,
2013-07-18 19:45:00,93.4,75.9,29.68,South,180,3.3,5.8,57,0.00,CLR,,0.00,WeatherDisplay:10.37,2013-07-18 23:45:00,
2013-07-18 19:50:00,92.5,75.6,29.67,South,180,4.0,6.9,58,0.00,CLR,,0.00,WeatherDisplay:10.37,2013-07-18 23:50:00,
2013-07-18 19:55:00,92.5,76.1,29.67,South,180,5.7,9.2,59,0.00,CLR,,0.00,WeatherDisplay:10.37,2013-07-18 23:55:00,
2013-07-18 20:00:00,92.1,75.7,29.67,SE,135,4.8,7.7,59,0.00,CLR,,0.00,WeatherDisplay:10.37,2013-07-19 00:00:00,
2013-07-18 20:05:00,91.9,76.1,29.67,SE,135,4.8,5.8,60,0.00,CLR,,0.00,WeatherDisplay:10.37,2013-07-19 00:05:00,
2013-07-18 20:10:00,91.8,76.4,29.67,South,180,3.3,5.8,61,0.00,CLR,,0.00,WeatherDisplay:10.37,2013-07-19 00:10:00,
2013-07-18 20:15:00,91.4,76.5,29.67,SE,135,6.8,6.9,62,0.00,CLR,,0.00,WeatherDisplay:10.37,2013-07-19 00:15:00,
2013-07-18 20:20:00,91.0,76.7,29.67,South,180,4.0,8.1,63,0.00,CLR,,0.00,WeatherDisplay:10.37,2013-07-19 00:20:00,
2013-07-18 20:25:00,90.3,76.5,29.67,South,180,3.3,9.2,64,0.00,CLR,,0.00,WeatherDisplay:10.37,2013-07-19 00:25:00,
2013-07-18 20:30:00,89.8,76.4,29.67,South,180,2.4,4.6,65,0.00,CLR,,0.00,WeatherDisplay:10.37,2013-07-19 00:30:00,
2013-07-18 20:35:00,89.2,76.8,29.67,SE,135,4.8,6.9,67,0.00,CLR,,0.00,WeatherDisplay:10.37,2013-07-19 00:35:00,
2013-07-18 20:40:00,88.7,76.8,29.67,SE,135,4.8,5.8,68,0.00,CLR,,0.00,WeatherDisplay:10.37,2013-07-19 00:40:00,
2013-07-18 20:45:00,88.2,76.7,29.67,SE,135,4.8,8.1,69,0.00,CLR,,0.00,WeatherDisplay:10.37,2013-07-19 00:45:00,
2013-07-18 20:50:00,87.6,77.0,29.68,South,180,2.4,4.6,71,0.00,CLR,,0.00,WeatherDisplay:10.37,2013-07-19 00:50:00,
2013-07-18 20:55:00,87.3,77.1,29.68,SE,135,4.0,4.6,72,0.00,CLR,,0.00,WeatherDisplay:10.37,2013-07-19 00:55:00,
2013-07-18 21:00:00,87.3,77.5,29.68,SE,135,2.8,8.1,73,0.00,CLR,,0.00,WeatherDisplay:10.37,2013-07-19 01:00:00,
2013-07-18 21:05:00,87.1,77.4,29.69,SW,225,0.7,3.5,73,0.00,CLR,,0.00,WeatherDisplay:10.37,2013-07-19 01:05:00,
2013-07-18 21:10:00,86.7,77.4,29.69,SW,225,3.3,5.8,74,0.00,CLR,,0.00,WeatherDisplay:10.37,2013-07-19 01:10:00,
2013-07-18 21:15:00,86.4,77.1,29.70,SE,135,4.0,6.9,74,0.00,CLR,,0.00,WeatherDisplay:10.37,2013-07-19 01:15:00,
2013-07-18 21:20:00,86.2,76.9,29.70,SE,135,4.0,8.1,74,0.00,CLR,,0.00,WeatherDisplay:10.37,2013-07-19 01:20:00,
2013-07-18 21:25:00,86.2,76.9,29.70,South,180,5.7,9.2,74,0.00,CLR,,0.00,WeatherDisplay:10.37,2013-07-19 01:25:00,
2013-07-18 21:30:00,86.0,76.7,29.70,SW,225,2.4,4.6,74,0.00,CLR,,0.00,WeatherDisplay:10.37,2013-07-19 01:30:00,
2013-07-18 21:35:00,85.6,76.8,29.70,SE,135,2.8,4.6,75,0.00,CLR,,0.00,WeatherDisplay:10.37,2013-07-19 01:35:00,
2013-07-18 21:40:00,85.3,76.9,29.70,South,180,2.4,5.8,76,0.00,CLR,,0.00,WeatherDisplay:10.37,2013-07-19 01:40:00,
2013-07-18 21:45:00,85.1,76.7,29.70,South,180,4.7,6.9,76,0.00,CLR,,0.00,WeatherDisplay:10.37,2013-07-19 01:45:00,
2013-07-18 21:50:00,84.7,76.3,29.70,SE,135,2.0,3.5,76,0.00,CLR,,0.00,WeatherDisplay:10.37,2013-07-19 01:50:00,
2013-07-18 21:55:00,84.4,76.0,29.70,SE,135,2.8,8.1,76,0.00,CLR,,0.00,WeatherDisplay:10.37,2013-07-19 01:55:00,
2013-07-18 22:00:00,84.4,76.0,29.71,South,180,3.3,3.5,76,0.00,CLR,,0.00,WeatherDisplay:10.37,2013-07-19 02:00:00,
2013-07-18 22:05:00,84.2,75.8,29.71,SW,225,2.4,4.6,76,0.00,CLR,,0.00,WeatherDisplay:10.37,2013-07-19 02:05:00,
2013-07-18 22:10:00,84.0,76.0,29.72,South,180,1.7,6.9,77,0.00,CLR,,0.00,WeatherDisplay:10.37,2013-07-19 02:10:00,
2013-07-18 22:15:00,84.0,76.0,29.72,South,180,1.7,3.5,77,0.00,CLR,,0.00,WeatherDisplay:10.37,2013-07-19 02:15:00,
2013-07-18 22:20:00,83.7,75.7,29.72,South,180,3.3,3.3,77,0.00,CLR,,0.00,WeatherDisplay:10.37,2013-07-19 02:20:00,
2013-07-18 22:25:00,83.5,75.1,29.72,South,180,2.4,4.6,76,0.00,CLR,,0.00,WeatherDisplay:10.37,2013-07-19 02:25:00,
2013-07-18 22:30:00,83.3,74.9,29.73,South,180,2.4,4.6,76,0.00,CLR,,0.00,WeatherDisplay:10.37,2013-07-19 02:30:00,
2013-07-18 22:35:00,83.3,74.9,29.73,SE,135,2.8,4.6,76,0.00,CLR,,0.00,WeatherDisplay:10.37,2013-07-19 02:35:00,
2013-07-18 22:40:00,82.9,75.0,29.73,SE,135,4.0,4.6,77,0.00,CLR,,0.00,WeatherDisplay:10.37,2013-07-19 02:40:00,
2013-07-18 22:45:00,82.6,74.6,29.74,SSE,158,3.3,4.6,77,0.00,CLR,,0.00,WeatherDisplay:10.37,2013-07-19 02:45:00,
2013-07-18 22:50:00,82.6,75.0,29.74,South,180,2.4,4.6,78,0.00,CLR,,0.00,WeatherDisplay:10.37,2013-07-19 02:50:00,
2013-07-18 22:55:00,82.4,74.8,29.74,South,180,2.4,3.5,78,0.00,CLR,,0.00,WeatherDisplay:10.37,2013-07-19 02:55:00,
2013-07-18 23:00:00,82.0,75.3,29.74,East,90,2.8,4.6,80,0.00,CLR,,0.00,WeatherDisplay:10.37,2013-07-19 03:00:00,
2013-07-18 23:05:00,81.9,75.1,29.75,South,180,1.7,2.3,80,0.00,CLR,,0.00,WeatherDisplay:10.37,2013-07-19 03:05:00,
2013-07-18 23:10:00,81.7,75.3,29.75,South,180,2.4,3.5,81,0.00,CLR,,0.00,WeatherDisplay:10.37,2013-07-19 03:10:00,
2013-07-18 23:15:00,81.5,75.1,29.75,South,180,2.4,4.6,81,0.00,CLR,,0.00,WeatherDisplay:10.37,2013-07-19 03:15:00,
2013-07-18 23:20:00,81.3,75.3,29.76,SE,135,2.8,5.8,82,0.00,CLR,,0.00,WeatherDisplay:10.37,2013-07-19 03:20:00,
2013-07-18 23:25:00,81.1,75.1,29.75,SE,135,4.8,6.9,82,0.00,CLR,,0.00,WeatherDisplay:10.37,2013-07-19 03:25:00,
2013-07-18 23:30:00,81.1,75.5,29.76,East,90,4.8,6.9,83,0.00,CLR,,0.00,WeatherDisplay:10.37,2013-07-19 03:30:00,
2013-07-18 23:35:00,81.0,75.3,29.76,South,180,2.4,5.8,83,0.00,CLR,,0.00,WeatherDisplay:10.37,2013-07-19 03:35:00,
2013-07-18 23:40:00,81.0,75.7,29.76,SSE,158,2.4,6.9,84,0.00,CLR,,0.00,WeatherDisplay:10.37,2013-07-19 03:40:00,
2013-07-18 23:45:00,81.0,75.7,29.77,South,180,4.0,5.8,84,0.00,CLR,,0.00,WeatherDisplay:10.37,2013-07-19 03:45:00,
2013-07-18 23:50:00,81.0,75.7,29.77,South,180,4.0,5.8,84,0.00,CLR,,0.00,WeatherDisplay:10.37,2013-07-19 03:50:00,
2013-07-18 23:55:00,81.0,75.3,29.77,South,180,2.4,4.6,83,0.00,CLR,,0.00,WeatherDisplay:10.37,2013-07-19 03:55:00,